AirNav   Phillips 66 Aviation Fuel
 
 1010 users online  

8B5 Tanner-Hiller Airport
Barre/Barre Plains, Massachusetts, USA

GOING TO BARRE/BARRE PLAINS?


FAA INFORMATION EFFECTIVE 01 FEBRUARY 2018

Location

FAA Identifier: 8B5
Lat/Long: 42-21-23.0000N / 072-07-48.3000W
42-21.383333N / 072-07.805000W
42.3563889 / -72.1300833
(estimated)
Elevation: 589 ft. / 180 m (estimated)
Variation: 15W (1985)
From city: 4 miles SW of central business district of the associated city
Time zone: UTC -5 (UTC -4 during Daylight Saving Time)
Zip code: 01531

Airport Operations

Airport use: Open to the public
Activation date: 11/1946
Control tower: no
ARTCC: BOSTON CENTER
FSS: BRIDGEPORT FLIGHT SERVICE STATION
NOTAMs facility: BDR (NOTAM-D service available)
Attendance: UNATNDD
Pattern altitude: 1589 ft. MSL
Wind indicator: yes
Segmented circle: no

Airport Communications

CTAF/UNICOM: 123.0
WX ASOS at ORH (12 nm SE): PHONE 508-795-7546
WX ASOS at ORE (15 nm NW): 135.675 (978-544-6774)

Nearby radio navigation aids

VOR radial/distance  VOR name  Freq  Var
GDMr210/11.8GARDNER VOR/DME110.6014W
CEFr076/20.0WESTOVER VORTAC114.0014W
PUTr346/27.2PUTNAM VOR/DME117.4014W
EENr179/27.2KEENE VORTAC109.4014W
BAFr080/28.5BARNES VORTAC113.0014W
CTRr097/36.6CHESTER VOR/DME115.1013W

 
NDB name  Hdg/Dist  Freq  Var  ID
FITCHBURG250/20.236515WFIT ..-. .. -

Airport Services

Parking: hangars and tiedowns
Airframe service: MINOR
Powerplant service: MINOR
Bottled oxygen: NONE
Bulk oxygen: NONE

Runway Information

Runway 6/24

Dimensions: 3027 x 40 ft. / 923 x 12 m
Surface: asphalt, in fair condition
Weight bearing capacity: 
Single wheel: 9.0
RUNWAY 6  RUNWAY 24
Latitude: 42-21.210210N42-21.556043N
Longitude: 072-08.047612W072-07.563877W
Elevation: 581.6 ft.589.0 ft.
Gradient: 0.1%0.1%
Traffic pattern: leftleft
Displaced threshold: 150 ft.200 ft.
Markings: numbers only, in fair conditionnumbers only, in fair condition
Runway end identifier lights: nono
Touchdown point: yes, no lightsyes, no lights
Obstructions: 25 ft. trees, 400 ft. from runway, 100 ft. right of centerline, 8:1 slope to clear
72 FT TREES 57 FT FM THLD 65 FT L.
33 ft. trees, 400 ft. from runway, 39 ft. left and right of centerline, 6:1 slope to clear
RY 24 30:1 AT DSPLCD THLD.

Airport Ownership and Management from official FAA records

Ownership: Privately-owned
Owner: G&C GROUP USA
525 MAIN ST
ACTON, MA 01720
Phone (781) 296-1120
Manager: DOUG HERLIHY
295 MCEVOY ROAD
NEW BRAINTREE, MA 01531
Phone (609) 923-3228

Airport Operational Statistics

Aircraft based on the field: 25
Single engine airplanes: 4
Gliders airplanes: 15
Ultralights: 6
    
Aircraft operations: avg 47/month *
88% local general aviation
9% transient general aviation
3% military
* for 12-month period ending 27 April 2016

Additional Remarks

RWY 24 HAS GRVL OVRN RWY 06 HAS TURF OVRN.
GLIDERS OPERATE FM ARPT ON INTERMITTENT BASIS. GLIDERS & POWERED ACFT FOLLOW LEFT HAND TRAFFIC PATTERN ON BOTH RYS.
WILDLIFE ON & INVOF ARPT.
FUEL NOT AVBL.
AP CLSD EXC PPR - REF NOTAMS

Instrument Procedures

There are no published instrument procedures at 8B5.

Some nearby airports with instrument procedures:

KORH - Worcester Regional Airport (12 nm SE)
KGDM - Gardner Municipal Airport (13 nm NE)
KORE - Orange Municipal Airport (15 nm NW)
3B0 - Southbridge Municipal Airport (16 nm S)
KFIT - Fitchburg Municipal Airport (20 nm NE)
 
Loc | Ops | Rwys | IFR | FBO | Links
Com | Nav | Svcs | Stats | Notes

AirNav Hotels Sweepstakes
 
Area around 8B5 (Tanner-Hiller Airport)
 
Road maps at: MapQuest Bing Google
 
Aerial photo
WARNING: Photo may not be current or correct
Aerial photo of 8B5 (Tanner-Hiller Airport)
Photo by Bruce Vinal, Aerial Perspectives
Photo taken 18-Dec-2010
looking southwest.

Do you have a better or more recent aerial photo of Tanner-Hiller Airport that you would like to share? If so, please send us your photo.

 
Sectional chart

 
Airport distance calculator
Flying to Tanner-Hiller Airport? Find the distance to fly.

From to 8B5

Sunrise and sunset
Times for 24-Feb-2018
 Local
(UTC-5)
 Zulu
(UTC)
Morning civil twilight06:0511:05
Sunrise06:3311:33
Sunset17:3122:31
Evening civil twilight17:5922:59

Current date and time
Zulu (UTC)  24-Feb-2018 18:07:49
Local (UTC-5)  24-Feb-2018 13:07:49
 
METAR
KORH 
13nm SE 
241754Z 28013KT 10SM BKN100 08/M01 A3009 RMK AO2 SLP196 T00831011 10100 20039 50002 $
KORE 
14nm NW 
241752Z AUTO 29006KT 10SM OVC100 08/01 A3012 RMK AO2 SLP204 T00830006 10094 20006 51003
KCEF 
20nm SW 
241756Z 29008KT 10SM FEW030 BKN100 BKN150 OVC200 09/00 A3012 RMK AO2A SLP207 T00920001 10116 20069 50003
KFIT 
20nm NE 
241752Z AUTO 29008KT 10SM BKN110 12/02 A3011 RMK AO2 SLP199 T01170017 10133 20017 53004 TSNO
TAF
KORH 
13nm SE 
241729Z 2418/2518 30012KT P6SM OVC150 FM250900 07006KT 6SM -FZRAPL BR OVC030 FM251200 08007KT 4SM -FZRAPL BR OVC005 FM251500 11007KT 1/2SM -FZRAPL FG OVC002
KCEF 
20nm SW 
241201Z 2412/2517 29012G18KT 9999 BKN030 QNH3006INS BECMG 2412/2413 31012G18KT 9999 FEW030 BKN110 QNH3012INS TEMPO 2413/2419 30015G25KT 520004 BECMG 2418/2419 32009KT 9999 BKN100 QNH3015INS BECMG 2511/2512 09009KT 6000 PL BKN007 OVC030 660054 620709 QNH3022INS BECMG 2515/2516 10009KT 4800 -RA BKN004 OVC030 620909 QNH3010INS TX12/2418Z TN00/2511Z
NOTAMs
Click for the latest NOTAMs
NOTAMs are issued by the DoD/FAA and will open in a separate window not controlled by AirNav.

 

 
 

Would you like to see your business listed on this page?

 If your business provides an interesting product or service to pilots, flight crews, aircraft, or users of the Tanner-Hiller Airport, you should consider listing it here.  To start the listing process, click on the button below
 
Add a business
 

Other Pages about Tanner-Hiller Airport

www.tannerhillerairport.com
 
Update a link
 
Copyright © AirNav, LLC. All rights reserved. Privacy Policy  Contact